Time,TemperatureF,DewpointF,PressureIn,WindDirection,WindDirectionDegrees,WindSpeedMPH,WindSpeedGustMPH,Humidity,HourlyPrecipIn,Conditions,Clouds,dailyrainin,SolarRadiationWatts/m^2,SoftwareType,DateUTC
2013-08-01 00:07:00,72.8,68.7,30.10,East,95,0.0,6.0,87,0.00,,,0.00,0,Wunderground v.1.15,2013-08-01 05:07:00,
2013-08-01 00:13:00,72.5,68.4,30.10,East,95,0.0,6.0,87,0.00,,,0.00,0,Wunderground v.1.15,2013-08-01 05:13:00,
2013-08-01 00:19:00,72.4,68.6,30.10,East,95,0.0,6.0,88,0.00,,,0.00,0,Wunderground v.1.15,2013-08-01 05:19:00,
2013-08-01 00:25:00,72.4,68.6,30.10,East,95,0.0,6.0,88,0.00,,,0.00,0,Wunderground v.1.15,2013-08-01 05:25:00,
2013-08-01 00:31:00,72.3,68.5,30.10,East,95,0.0,6.0,88,0.00,,,0.00,0,Wunderground v.1.15,2013-08-01 05:31:00,
2013-08-01 00:37:00,72.2,68.4,30.10,East,95,0.0,6.0,88,0.00,,,0.00,0,Wunderground v.1.15,2013-08-01 05:37:00,
2013-08-01 00:43:00,72.2,68.4,30.11,East,95,0.0,6.0,88,0.00,,,0.00,0,Wunderground v.1.15,2013-08-01 05:43:00,
2013-08-01 00:49:00,72.1,68.3,30.10,East,95,0.0,6.0,88,0.00,,,0.00,0,Wunderground v.1.15,2013-08-01 05:49:00,
2013-08-01 00:55:00,72.0,68.2,30.10,East,95,0.0,6.0,88,0.00,,,0.00,0,Wunderground v.1.15,2013-08-01 05:55:00,
2013-08-01 01:01:00,71.9,68.2,30.10,East,95,0.0,6.0,88,0.00,,,0.00,0,Wunderground v.1.15,2013-08-01 06:01:00,
2013-08-01 01:07:00,71.9,68.2,30.10,East,95,0.0,0.0,88,0.00,,,0.00,0,Wunderground v.1.15,2013-08-01 06:07:00,
2013-08-01 01:13:00,71.7,68.0,30.10,East,95,1.0,1.0,88,0.00,,,0.00,0,Wunderground v.1.15,2013-08-01 06:13:00,
2013-08-01 01:19:00,71.5,67.8,30.10,East,95,2.0,2.0,88,0.00,,,0.00,0,Wunderground v.1.15,2013-08-01 06:19:00,
2013-08-01 01:25:00,71.3,67.6,30.10,East,95,2.0,3.0,88,0.00,,,0.00,0,Wunderground v.1.15,2013-08-01 06:25:00,
2013-08-01 01:31:00,71.1,67.4,30.10,East,95,2.0,3.0,88,0.00,,,0.00,0,Wunderground v.1.15,2013-08-01 06:31:00,
2013-08-01 01:37:00,71.0,67.3,30.10,East,95,1.0,2.0,88,0.00,,,0.00,0,Wunderground v.1.15,2013-08-01 06:37:00,
2013-08-01 01:43:00,71.2,67.8,30.11,East,95,1.0,2.0,89,0.00,,,0.00,0,Wunderground v.1.15,2013-08-01 06:43:00,
2013-08-01 01:49:00,71.2,67.8,30.10,East,95,1.0,2.0,89,0.00,,,0.00,0,Wunderground v.1.15,2013-08-01 06:49:00,
2013-08-01 01:55:00,71.3,67.9,30.10,East,95,2.0,3.0,89,0.00,,,0.00,0,Wunderground v.1.15,2013-08-01 06:55:00,
2013-08-01 02:03:00,71.3,67.9,30.10,East,95,3.0,3.0,89,0.00,,,0.00,0,Wunderground v.1.15,2013-08-01 07:03:00,
2013-08-01 02:09:00,71.1,67.7,30.11,East,95,2.0,3.0,89,0.00,,,0.00,0,Wunderground v.1.15,2013-08-01 07:09:00,
2013-08-01 02:15:00,70.9,67.5,30.11,East,95,1.0,2.0,89,0.00,,,0.00,0,Wunderground v.1.15,2013-08-01 07:15:00,
2013-08-01 02:21:00,70.9,67.5,30.11,East,95,0.0,2.0,89,0.00,,,0.00,0,Wunderground v.1.15,2013-08-01 07:21:00,
2013-08-01 02:27:00,70.8,67.4,30.11,East,95,0.0,0.0,89,0.00,,,0.00,0,Wunderground v.1.15,2013-08-01 07:27:00,
2013-08-01 02:33:00,70.7,67.3,30.11,East,95,0.0,0.0,89,0.00,,,0.00,0,Wunderground v.1.15,2013-08-01 07:33:00,
2013-08-01 02:39:00,70.7,67.3,30.11,East,95,0.0,0.0,89,0.00,,,0.00,0,Wunderground v.1.15,2013-08-01 07:39:00,
2013-08-01 02:45:00,70.8,67.4,30.11,East,95,0.0,0.0,89,0.00,,,0.00,0,Wunderground v.1.15,2013-08-01 07:45:00,
2013-08-01 02:51:00,70.9,67.5,30.11,East,95,0.0,1.0,89,0.00,,,0.00,0,Wunderground v.1.15,2013-08-01 07:51:00,
2013-08-01 02:59:00,70.7,67.3,30.10,East,95,2.0,3.0,89,0.00,,,0.00,0,Wunderground v.1.15,2013-08-01 07:59:00,
2013-08-01 03:05:00,70.3,66.9,30.10,East,95,3.0,5.0,89,0.00,,,0.00,0,Wunderground v.1.15,2013-08-01 08:05:00,
2013-08-01 03:11:00,70.1,66.7,30.10,East,95,4.0,5.0,89,0.00,,,0.00,0,Wunderground v.1.15,2013-08-01 08:11:00,
2013-08-01 03:23:00,69.8,66.4,30.09,East,95,3.0,3.0,89,0.00,,,0.00,0,Wunderground v.1.15,2013-08-01 08:23:00,
2013-08-01 03:29:00,69.7,66.3,30.10,East,95,2.0,3.0,89,0.00,,,0.00,0,Wunderground v.1.15,2013-08-01 08:29:00,
2013-08-01 03:35:00,69.9,66.5,30.10,East,95,1.0,2.0,89,0.00,,,0.00,0,Wunderground v.1.15,2013-08-01 08:35:00,
2013-08-01 03:41:00,69.8,66.4,30.10,East,95,0.0,2.0,89,0.00,,,0.00,0,Wunderground v.1.15,2013-08-01 08:41:00,
2013-08-01 03:47:00,69.7,66.3,30.10,East,95,0.0,0.0,89,0.00,,,0.00,0,Wunderground v.1.15,2013-08-01 08:47:00,
2013-08-01 03:55:00,69.4,66.0,30.09,East,95,0.0,0.0,89,0.00,,,0.00,0,Wunderground v.1.15,2013-08-01 08:55:00,
2013-08-01 04:09:00,69.0,65.9,30.09,East,95,0.0,0.0,90,0.00,,,0.00,0,Wunderground v.1.15,2013-08-01 09:09:00,
2013-08-01 04:15:00,69.1,66.0,30.10,East,95,0.0,0.0,90,0.00,,,0.00,0,Wunderground v.1.15,2013-08-01 09:15:00,
2013-08-01 04:23:00,69.0,65.9,30.10,East,95,0.0,0.0,90,0.00,,,0.00,0,Wunderground v.1.15,2013-08-01 09:23:00,
2013-08-01 04:31:00,69.1,66.0,30.10,East,95,0.0,0.0,90,0.00,,,0.00,0,Wunderground v.1.15,2013-08-01 09:31:00,
2013-08-01 04:37:00,69.1,66.0,30.10,East,95,0.0,0.0,90,0.00,,,0.00,0,Wunderground v.1.15,2013-08-01 09:37:00,
2013-08-01 04:43:00,68.9,65.8,30.10,East,95,0.0,0.0,90,0.00,,,0.00,0,Wunderground v.1.15,2013-08-01 09:43:00,
2013-08-01 04:51:00,68.7,65.6,30.10,East,95,0.0,0.0,90,0.00,,,0.00,0,Wunderground v.1.15,2013-08-01 09:51:00,
2013-08-01 04:57:00,68.6,65.5,30.11,East,95,0.0,0.0,90,0.00,,,0.00,0,Wunderground v.1.15,2013-08-01 09:57:00,
2013-08-01 05:05:00,68.3,65.3,30.10,East,95,0.0,0.0,90,0.00,,,0.00,0,Wunderground v.1.15,2013-08-01 10:05:00,
2013-08-01 05:19:00,68.0,65.0,30.10,East,95,0.0,0.0,90,0.00,,,0.00,0,Wunderground v.1.15,2013-08-01 10:19:00,
2013-08-01 05:25:00,67.8,64.8,30.10,East,95,0.0,0.0,90,0.00,,,0.00,0,Wunderground v.1.15,2013-08-01 10:25:00,
2013-08-01 05:41:00,68.2,65.2,30.11,East,95,1.0,1.0,90,0.00,,,0.00,0,Wunderground v.1.15,2013-08-01 10:41:00,
2013-08-01 05:51:00,68.1,65.1,30.11,East,95,0.0,1.0,90,0.00,,,0.00,0,Wunderground v.1.15,2013-08-01 10:51:00,
2013-08-01 05:57:00,68.0,65.0,30.12,East,95,0.0,0.0,90,0.00,,,0.00,0,Wunderground v.1.15,2013-08-01 10:57:00,
2013-08-01 06:03:00,67.9,64.9,30.11,East,95,0.0,0.0,90,0.00,,,0.00,0,Wunderground v.1.15,2013-08-01 11:03:00,
2013-08-01 06:09:00,67.6,64.6,30.11,East,95,0.0,2.0,90,0.00,,,0.00,0,Wunderground v.1.15,2013-08-01 11:09:00,
2013-08-01 06:15:00,67.3,64.3,30.12,East,95,2.0,2.0,90,0.00,,,0.00,0,Wunderground v.1.15,2013-08-01 11:15:00,
2013-08-01 06:21:00,66.8,63.8,30.12,East,95,2.0,2.0,90,0.00,,,0.00,0,Wunderground v.1.15,2013-08-01 11:21:00,
2013-08-01 06:27:00,66.8,63.8,30.12,East,95,2.0,2.0,90,0.00,,,0.00,0,Wunderground v.1.15,2013-08-01 11:27:00,
2013-08-01 06:37:00,67.2,64.2,30.12,East,95,1.0,2.0,90,0.00,,,0.00,5,Wunderground v.1.15,2013-08-01 11:37:00,
2013-08-01 06:43:00,67.6,64.9,30.13,East,95,0.0,0.0,91,0.00,,,0.00,11,Wunderground v.1.15,2013-08-01 11:43:00,
2013-08-01 06:49:00,67.8,65.1,30.13,East,95,0.0,0.0,91,0.00,,,0.00,16,Wunderground v.1.15,2013-08-01 11:49:00,
2013-08-01 06:55:00,68.1,65.4,30.13,East,95,0.0,0.0,91,0.00,,,0.00,25,Wunderground v.1.15,2013-08-01 11:55:00,
2013-08-01 07:03:00,68.7,66.0,30.14,East,95,0.0,0.0,91,0.00,,,0.00,30,Wunderground v.1.15,2013-08-01 12:03:00,
2013-08-01 07:13:00,68.8,66.1,30.14,East,95,0.0,0.0,91,0.00,,,0.00,33,Wunderground v.1.15,2013-08-01 12:13:00,
2013-08-01 07:19:00,68.8,66.1,30.14,East,95,0.0,0.0,91,0.00,,,0.00,28,Wunderground v.1.15,2013-08-01 12:19:00,
2013-08-01 07:25:00,68.8,66.1,30.14,East,95,0.0,0.0,91,0.00,,,0.00,35,Wunderground v.1.15,2013-08-01 12:25:00,
2013-08-01 07:31:00,69.0,66.3,30.13,East,95,0.0,0.0,91,0.00,,,0.00,70,Wunderground v.1.15,2013-08-01 12:31:00,
2013-08-01 07:37:00,69.4,66.7,30.14,East,95,0.0,0.0,91,0.00,,,0.00,86,Wunderground v.1.15,2013-08-01 12:37:00,
2013-08-01 07:45:00,70.3,67.5,30.13,East,95,0.0,0.0,91,0.00,,,0.00,107,Wunderground v.1.15,2013-08-01 12:45:00,
2013-08-01 07:51:00,70.6,67.8,30.14,East,95,0.0,0.0,91,0.00,,,0.00,121,Wunderground v.1.15,2013-08-01 12:51:00,
2013-08-01 07:57:00,70.9,68.1,30.14,East,95,0.0,2.0,91,0.00,,,0.00,139,Wunderground v.1.15,2013-08-01 12:57:00,
2013-08-01 08:07:00,71.7,68.9,30.14,East,95,1.0,2.0,91,0.00,,,0.00,165,Wunderground v.1.15,2013-08-01 13:07:00,
2013-08-01 08:15:00,72.3,69.2,30.14,East,95,1.0,1.0,90,0.00,,,0.00,186,Wunderground v.1.15,2013-08-01 13:15:00,
2013-08-01 08:21:00,72.9,69.5,30.15,East,95,1.0,1.0,89,0.00,,,0.00,202,Wunderground v.1.15,2013-08-01 13:21:00,
2013-08-01 08:31:00,73.9,69.4,30.14,East,95,1.0,3.0,86,0.00,,,0.00,229,Wunderground v.1.15,2013-08-01 13:31:00,
2013-08-01 08:37:00,74.6,69.1,30.14,East,95,2.0,5.0,83,0.00,,,0.00,246,Wunderground v.1.15,2013-08-01 13:37:00,
2013-08-01 08:45:00,75.1,69.2,30.14,East,95,2.0,3.0,82,0.00,,,0.00,272,Wunderground v.1.15,2013-08-01 13:45:00,
2013-08-01 08:51:00,75.4,68.8,30.14,East,95,2.0,6.0,80,0.00,,,0.00,294,Wunderground v.1.15,2013-08-01 13:51:00,
2013-08-01 08:57:00,75.9,68.5,30.14,East,95,2.0,6.0,78,0.00,,,0.00,322,Wunderground v.1.15,2013-08-01 13:57:00,
2013-08-01 09:07:00,76.7,68.9,30.14,East,95,1.0,2.0,77,0.00,,,0.00,362,Wunderground v.1.15,2013-08-01 14:07:00,
2013-08-01 09:23:00,77.8,69.2,30.14,East,95,3.0,3.0,75,0.00,,,0.00,413,Wunderground v.1.15,2013-08-01 14:23:00,
2013-08-01 09:29:00,78.0,69.0,30.14,East,95,2.0,6.0,74,0.00,,,0.00,431,Wunderground v.1.15,2013-08-01 14:29:00,
2013-08-01 09:37:00,78.3,68.9,30.14,East,95,2.0,5.0,73,0.00,,,0.00,455,Wunderground v.1.15,2013-08-01 14:37:00,
2013-08-01 09:43:00,78.8,69.4,30.14,East,95,3.0,3.0,73,0.00,,,0.00,469,Wunderground v.1.15,2013-08-01 14:43:00,
2013-08-01 09:49:00,79.3,69.9,30.14,East,95,3.0,3.0,73,0.00,,,0.00,487,Wunderground v.1.15,2013-08-01 14:49:00,
2013-08-01 09:55:00,79.8,69.1,30.14,East,95,3.0,8.0,70,0.00,,,0.00,504,Wunderground v.1.15,2013-08-01 14:55:00,
2013-08-01 10:01:00,80.0,69.3,30.14,East,95,4.0,8.0,70,0.00,,,0.00,524,Wunderground v.1.15,2013-08-01 15:01:00,
2013-08-01 10:07:00,80.6,69.9,30.14,East,95,3.0,5.0,70,0.00,,,0.00,538,Wunderground v.1.15,2013-08-01 15:07:00,
2013-08-01 10:13:00,80.7,68.7,30.14,East,95,3.0,3.0,67,0.00,,,0.00,554,Wunderground v.1.15,2013-08-01 15:13:00,
2013-08-01 10:19:00,81.1,68.7,30.13,East,95,3.0,3.0,66,0.00,,,0.00,571,Wunderground v.1.15,2013-08-01 15:19:00,
2013-08-01 10:33:00,81.6,69.6,30.13,ESE,104,2.0,2.0,67,0.00,,,0.00,606,Wunderground v.1.15,2013-08-01 15:33:00,
2013-08-01 10:39:00,81.7,69.2,30.13,ESE,113,5.0,5.0,66,0.00,,,0.00,622,Wunderground v.1.15,2013-08-01 15:39:00,
2013-08-01 10:45:00,82.4,69.4,30.13,SE,126,5.0,7.0,65,0.00,,,0.00,633,Wunderground v.1.15,2013-08-01 15:45:00,
2013-08-01 10:51:00,82.4,68.5,30.12,SE,126,4.0,7.0,63,0.00,,,0.00,656,Wunderground v.1.15,2013-08-01 15:51:00,
2013-08-01 10:59:00,82.6,69.2,30.12,SE,126,4.0,7.0,64,0.00,,,0.00,668,Wunderground v.1.15,2013-08-01 15:59:00,
2013-08-01 11:05:00,82.8,69.4,30.12,SE,127,4.0,4.0,64,0.00,,,0.00,686,Wunderground v.1.15,2013-08-01 16:05:00,
2013-08-01 11:11:00,83.4,70.8,30.12,SE,131,3.0,8.0,66,0.00,,,0.00,700,Wunderground v.1.15,2013-08-01 16:11:00,
2013-08-01 11:19:00,83.5,69.6,30.12,SE,133,4.0,7.0,63,0.00,,,0.00,719,Wunderground v.1.15,2013-08-01 16:19:00,
2013-08-01 11:27:00,83.8,71.2,30.12,SE,142,4.0,5.0,66,0.00,,,0.00,710,Wunderground v.1.15,2013-08-01 16:27:00,
2013-08-01 11:35:00,84.1,71.1,30.12,SE,143,4.0,8.0,65,0.00,,,0.00,752,Wunderground v.1.15,2013-08-01 16:35:00,
2013-08-01 11:41:00,84.1,70.1,30.12,SE,136,5.0,8.0,63,0.00,,,0.00,770,Wunderground v.1.15,2013-08-01 16:41:00,
2013-08-01 11:47:00,84.6,70.1,30.12,SE,136,5.0,5.0,62,0.00,,,0.00,849,Wunderground v.1.15,2013-08-01 16:47:00,
2013-08-01 11:53:00,84.7,71.2,30.12,SE,136,4.0,4.0,64,0.00,,,0.00,833,Wunderground v.1.15,2013-08-01 16:53:00,
2013-08-01 12:05:00,84.4,69.0,30.12,SE,135,5.0,8.0,60,0.00,,,0.00,854,Wunderground v.1.15,2013-08-01 17:05:00,
2013-08-01 12:17:00,84.9,69.5,30.12,SE,141,5.0,6.0,60,0.00,,,0.00,860,Wunderground v.1.15,2013-08-01 17:17:00,
2013-08-01 12:25:00,84.8,68.9,30.11,SSE,148,5.0,6.0,59,0.00,,,0.00,828,Wunderground v.1.15,2013-08-01 17:25:00,
2013-08-01 12:33:00,85.3,69.8,30.11,SSE,149,5.0,5.0,60,0.00,,,0.00,181,Wunderground v.1.15,2013-08-01 17:33:00,
2013-08-01 12:39:00,84.6,68.7,30.11,SSE,154,5.0,13.0,59,0.00,,,0.00,860,Wunderground v.1.15,2013-08-01 17:39:00,
2013-08-01 12:45:00,85.5,71.5,30.11,SSE,154,5.0,5.0,63,0.00,,,0.00,868,Wunderground v.1.15,2013-08-01 17:45:00,
2013-08-01 12:53:00,85.7,68.2,30.11,SSE,152,5.0,5.0,56,0.00,,,0.00,867,Wunderground v.1.15,2013-08-01 17:53:00,
2013-08-01 13:03:00,85.8,69.3,30.11,SE,142,6.0,9.0,58,0.00,,,0.00,870,Wunderground v.1.15,2013-08-01 18:03:00,
2013-08-01 13:11:00,85.8,70.3,30.10,SE,139,5.0,9.0,60,0.00,,,0.00,904,Wunderground v.1.15,2013-08-01 18:11:00,
2013-08-01 13:21:00,86.2,70.7,30.10,SSE,155,5.0,6.0,60,0.00,,,0.00,875,Wunderground v.1.15,2013-08-01 18:21:00,
2013-08-01 13:27:00,85.9,68.9,30.09,SE,126,7.0,8.0,57,0.00,,,0.00,868,Wunderground v.1.15,2013-08-01 18:27:00,
2013-08-01 13:35:00,86.3,70.3,30.09,ESE,123,7.0,8.0,59,0.00,,,0.00,875,Wunderground v.1.15,2013-08-01 18:35:00,
2013-08-01 13:41:00,86.5,68.4,30.08,SSE,152,6.0,10.0,55,0.00,,,0.00,877,Wunderground v.1.15,2013-08-01 18:41:00,
2013-08-01 13:47:00,86.8,67.6,30.08,SE,137,7.0,7.0,53,0.00,,,0.00,870,Wunderground v.1.15,2013-08-01 18:47:00,
2013-08-01 13:55:00,87.6,67.2,30.08,SE,144,6.0,9.0,51,0.00,,,0.00,879,Wunderground v.1.15,2013-08-01 18:55:00,
2013-08-01 14:01:00,87.3,67.0,30.08,SE,140,6.0,9.0,51,0.00,,,0.00,877,Wunderground v.1.15,2013-08-01 19:01:00,
2013-08-01 14:07:00,87.6,67.2,30.08,SSE,148,5.0,6.0,51,0.00,,,0.00,867,Wunderground v.1.15,2013-08-01 19:07:00,
2013-08-01 14:15:00,87.2,68.5,30.08,SE,134,6.0,8.0,54,0.00,,,0.00,863,Wunderground v.1.15,2013-08-01 19:15:00,
2013-08-01 14:21:00,87.4,68.7,30.08,SE,127,6.0,10.0,54,0.00,,,0.00,865,Wunderground v.1.15,2013-08-01 19:21:00,
2013-08-01 14:29:00,87.8,66.8,30.08,SE,131,6.0,6.0,50,0.00,,,0.00,856,Wunderground v.1.15,2013-08-01 19:29:00,
2013-08-01 14:35:00,88.0,69.3,30.08,SSE,152,5.0,7.0,54,0.00,,,0.00,849,Wunderground v.1.15,2013-08-01 19:35:00,
2013-08-01 14:41:00,87.5,69.3,30.07,SE,146,5.0,7.0,55,0.00,,,0.00,853,Wunderground v.1.15,2013-08-01 19:41:00,
2013-08-01 14:55:00,87.5,68.8,30.07,SE,134,4.0,9.0,54,0.00,,,0.00,838,Wunderground v.1.15,2013-08-01 19:55:00,
2013-08-01 15:05:00,88.2,67.2,30.07,SE,134,5.0,5.0,50,0.00,,,0.00,819,Wunderground v.1.15,2013-08-01 20:05:00,
2013-08-01 15:11:00,88.0,67.0,30.06,SE,127,5.0,5.0,50,0.00,,,0.00,812,Wunderground v.1.15,2013-08-01 20:11:00,
2013-08-01 15:19:00,88.0,68.7,30.06,SE,131,5.0,7.0,53,0.00,,,0.00,807,Wunderground v.1.15,2013-08-01 20:19:00,
2013-08-01 15:25:00,88.7,68.8,30.06,SE,137,5.0,9.0,52,0.00,,,0.00,802,Wunderground v.1.15,2013-08-01 20:25:00,
2013-08-01 15:33:00,88.5,69.2,30.06,SE,141,6.0,8.0,53,0.00,,,0.00,784,Wunderground v.1.15,2013-08-01 20:33:00,
2013-08-01 15:39:00,88.4,68.5,30.06,SE,135,6.0,8.0,52,0.00,,,0.00,770,Wunderground v.1.15,2013-08-01 20:39:00,
2013-08-01 15:45:00,88.5,70.8,30.05,SE,139,5.0,8.0,56,0.00,,,0.00,765,Wunderground v.1.15,2013-08-01 20:45:00,
2013-08-01 15:51:00,88.8,68.9,30.05,SSE,148,6.0,8.0,52,0.00,,,0.00,754,Wunderground v.1.15,2013-08-01 20:51:00,
2013-08-01 15:57:00,88.6,68.2,30.05,SE,133,6.0,7.0,51,0.00,,,0.00,745,Wunderground v.1.15,2013-08-01 20:57:00,
2013-08-01 16:03:00,88.3,68.4,30.04,SE,126,6.0,6.0,52,0.00,,,0.00,724,Wunderground v.1.15,2013-08-01 21:03:00,
2013-08-01 16:09:00,88.0,68.2,30.03,ESE,121,6.0,8.0,52,0.00,,,0.00,715,Wunderground v.1.15,2013-08-01 21:09:00,
2013-08-01 16:15:00,88.3,68.4,30.03,SE,130,7.0,10.0,52,0.00,,,0.00,708,Wunderground v.1.15,2013-08-01 21:15:00,
2013-08-01 16:21:00,88.1,69.4,30.03,SE,135,7.0,10.0,54,0.00,,,0.00,691,Wunderground v.1.15,2013-08-01 21:21:00,
2013-08-01 16:27:00,88.9,70.1,30.03,SE,139,6.0,7.0,54,0.00,,,0.00,682,Wunderground v.1.15,2013-08-01 21:27:00,
2013-08-01 16:33:00,88.7,69.9,30.02,SE,137,6.0,7.0,54,0.00,,,0.00,664,Wunderground v.1.15,2013-08-01 21:33:00,
2013-08-01 16:39:00,88.2,68.9,30.02,SE,130,7.0,9.0,53,0.00,,,0.00,649,Wunderground v.1.15,2013-08-01 21:39:00,
2013-08-01 16:45:00,88.6,69.8,30.01,SE,137,7.0,9.0,54,0.00,,,0.00,640,Wunderground v.1.15,2013-08-01 21:45:00,
2013-08-01 16:51:00,88.6,68.7,30.01,SSE,156,7.0,10.0,52,0.00,,,0.00,629,Wunderground v.1.15,2013-08-01 21:51:00,
2013-08-01 16:57:00,88.5,70.8,30.01,SE,135,6.0,6.0,56,0.00,,,0.00,606,Wunderground v.1.15,2013-08-01 21:57:00,
2013-08-01 17:07:00,88.4,68.5,30.01,SSE,155,8.0,13.0,52,0.00,,,0.00,582,Wunderground v.1.15,2013-08-01 22:07:00,
2013-08-01 17:13:00,88.3,69.5,30.00,SSE,156,8.0,8.0,54,0.00,,,0.00,561,Wunderground v.1.15,2013-08-01 22:13:00,
2013-08-01 17:23:00,88.5,69.2,30.00,SE,124,6.0,7.0,53,0.00,,,0.00,533,Wunderground v.1.15,2013-08-01 22:23:00,
2013-08-01 17:29:00,88.2,69.5,30.00,SE,137,7.0,10.0,54,0.00,,,0.00,519,Wunderground v.1.15,2013-08-01 22:29:00,
2013-08-01 17:35:00,87.9,69.2,30.00,SE,124,7.0,8.0,54,0.00,,,0.00,499,Wunderground v.1.15,2013-08-01 22:35:00,
2013-08-01 17:43:00,88.0,68.2,30.00,SSE,153,7.0,8.0,52,0.00,,,0.00,480,Wunderground v.1.15,2013-08-01 22:43:00,
2013-08-01 17:49:00,87.9,69.7,30.00,SSE,147,8.0,11.0,55,0.00,,,0.00,461,Wunderground v.1.15,2013-08-01 22:49:00,
2013-08-01 17:55:00,88.1,69.9,30.00,SE,127,7.0,8.0,55,0.00,,,0.00,443,Wunderground v.1.15,2013-08-01 22:55:00,
2013-08-01 18:05:00,88.2,67.2,30.00,SSE,149,6.0,6.0,50,0.00,,,0.00,411,Wunderground v.1.15,2013-08-01 23:05:00,
2013-08-01 18:11:00,88.0,67.0,30.00,SE,145,7.0,9.0,50,0.00,,,0.00,396,Wunderground v.1.15,2013-08-01 23:11:00,
2013-08-01 18:17:00,87.8,67.4,29.99,SE,145,8.0,8.0,51,0.00,,,0.00,367,Wunderground v.1.15,2013-08-01 23:17:00,
2013-08-01 18:27:00,87.5,67.7,29.99,SE,141,8.0,9.0,52,0.00,,,0.00,352,Wunderground v.1.15,2013-08-01 23:27:00,
2013-08-01 18:33:00,87.4,67.1,29.99,SSE,162,8.0,8.0,51,0.00,,,0.00,332,Wunderground v.1.15,2013-08-01 23:33:00,
2013-08-01 18:39:00,87.3,68.1,29.99,SE,145,7.0,10.0,53,0.00,,,0.00,290,Wunderground v.1.15,2013-08-01 23:39:00,
2013-08-01 18:45:00,87.1,69.0,29.99,SSE,154,6.0,8.0,55,0.00,,,0.00,181,Wunderground v.1.15,2013-08-01 23:45:00,
2013-08-01 18:51:00,86.6,67.4,29.99,SSE,151,7.0,11.0,53,0.00,,,0.00,288,Wunderground v.1.15,2013-08-01 23:51:00,
2013-08-01 18:57:00,86.4,67.8,29.98,SE,131,6.0,7.0,54,0.00,,,0.00,253,Wunderground v.1.15,2013-08-01 23:57:00,
2013-08-01 19:03:00,86.1,68.6,29.98,SSE,148,6.0,7.0,56,0.00,,,0.00,142,Wunderground v.1.15,2013-08-02 00:03:00,
2013-08-01 19:09:00,85.9,68.9,29.98,SE,143,5.0,7.0,57,0.00,,,0.00,223,Wunderground v.1.15,2013-08-02 00:09:00,
2013-08-01 19:17:00,85.9,69.4,29.98,SSE,160,5.0,7.0,58,0.00,,,0.00,193,Wunderground v.1.15,2013-08-02 00:17:00,
2013-08-01 19:23:00,85.7,67.7,29.99,SSE,163,8.0,8.0,55,0.00,,,0.00,171,Wunderground v.1.15,2013-08-02 00:23:00,
2013-08-01 19:29:00,85.4,67.4,29.99,SE,145,8.0,9.0,55,0.00,,,0.00,146,Wunderground v.1.15,2013-08-02 00:29:00,
2013-08-01 19:35:00,85.0,67.0,29.99,SSE,148,8.0,9.0,55,0.00,,,0.00,84,Wunderground v.1.15,2013-08-02 00:35:00,
2013-08-01 19:43:00,84.4,67.0,29.99,SSE,150,8.0,8.0,56,0.00,,,0.00,33,Wunderground v.1.15,2013-08-02 00:43:00,
2013-08-01 19:49:00,84.1,67.7,29.99,SSE,152,8.0,8.0,58,0.00,,,0.00,28,Wunderground v.1.15,2013-08-02 00:49:00,
2013-08-01 19:55:00,83.7,68.3,29.99,SSE,154,6.0,8.0,60,0.00,,,0.00,28,Wunderground v.1.15,2013-08-02 00:55:00,
2013-08-01 20:01:00,83.4,68.1,29.99,SE,146,5.0,8.0,60,0.00,,,0.00,25,Wunderground v.1.15,2013-08-02 01:01:00,
2013-08-01 20:07:00,83.0,68.6,29.99,SE,145,5.0,7.0,62,0.00,,,0.00,18,Wunderground v.1.15,2013-08-02 01:07:00,
2013-08-01 20:13:00,82.5,68.6,29.99,SSE,147,5.0,5.0,63,0.00,,,0.00,11,Wunderground v.1.15,2013-08-02 01:13:00,
2013-08-01 20:21:00,81.8,68.4,29.99,SSE,147,4.0,6.0,64,0.00,,,0.00,5,Wunderground v.1.15,2013-08-02 01:21:00,
2013-08-01 20:27:00,81.3,68.4,29.98,SSE,149,4.0,5.0,65,0.00,,,0.00,5,Wunderground v.1.15,2013-08-02 01:27:00,
2013-08-01 20:33:00,80.8,68.4,29.98,SSE,149,3.0,3.0,66,0.00,,,0.00,0,Wunderground v.1.15,2013-08-02 01:33:00,
2013-08-01 20:41:00,80.0,68.1,29.98,SSE,148,3.0,5.0,67,0.00,,,0.00,0,Wunderground v.1.15,2013-08-02 01:41:00,
2013-08-01 20:47:00,79.6,68.1,29.98,SSE,147,4.0,5.0,68,0.00,,,0.00,0,Wunderground v.1.15,2013-08-02 01:47:00,
2013-08-01 20:55:00,79.3,67.4,29.98,SE,142,4.0,4.0,67,0.00,,,0.00,0,Wunderground v.1.15,2013-08-02 01:55:00,
2013-08-01 21:01:00,78.9,67.4,29.97,SE,142,4.0,4.0,68,0.00,,,0.00,0,Wunderground v.1.15,2013-08-02 02:01:00,
2013-08-01 21:11:00,78.5,67.5,29.97,SE,143,4.0,5.0,69,0.00,,,0.00,0,Wunderground v.1.15,2013-08-02 02:11:00,
2013-08-01 21:17:00,78.4,67.0,29.97,SE,142,4.0,6.0,68,0.00,,,0.00,0,Wunderground v.1.15,2013-08-02 02:17:00,
2013-08-01 21:23:00,78.3,66.9,29.97,SSE,147,4.0,6.0,68,0.00,,,0.00,0,Wunderground v.1.15,2013-08-02 02:23:00,
2013-08-01 21:29:00,78.1,66.7,29.97,SE,143,4.0,6.0,68,0.00,,,0.00,0,Wunderground v.1.15,2013-08-02 02:29:00,
2013-08-01 21:37:00,77.8,66.4,29.97,SE,141,3.0,6.0,68,0.00,,,0.00,0,Wunderground v.1.15,2013-08-02 02:37:00,
2013-08-01 21:43:00,77.6,66.2,29.98,SE,139,3.0,4.0,68,0.00,,,0.00,0,Wunderground v.1.15,2013-08-02 02:43:00,
2013-08-01 21:51:00,77.5,66.5,29.97,SE,137,4.0,5.0,69,0.00,,,0.00,0,Wunderground v.1.15,2013-08-02 02:51:00,
2013-08-01 21:57:00,77.3,66.3,29.97,SE,141,4.0,5.0,69,0.00,,,0.00,0,Wunderground v.1.15,2013-08-02 02:57:00,
2013-08-01 22:03:00,77.1,66.1,29.97,SE,141,4.0,4.0,69,0.00,,,0.00,0,Wunderground v.1.15,2013-08-02 03:03:00,
2013-08-01 22:09:00,76.9,66.0,29.97,SE,146,4.0,4.0,69,0.00,,,0.00,0,Wunderground v.1.15,2013-08-02 03:09:00,
2013-08-01 22:15:00,76.9,66.4,29.97,SSE,147,4.0,5.0,70,0.00,,,0.00,0,Wunderground v.1.15,2013-08-02 03:15:00,
2013-08-01 22:25:00,76.7,66.2,29.97,SSE,150,6.0,6.0,70,0.00,,,0.00,0,Wunderground v.1.15,2013-08-02 03:25:00,
2013-08-01 22:31:00,76.5,66.0,29.96,SSE,151,7.0,8.0,70,0.00,,,0.00,0,Wunderground v.1.15,2013-08-02 03:31:00,
2013-08-01 22:37:00,76.3,66.2,29.97,SSE,158,7.0,7.0,71,0.00,,,0.00,0,Wunderground v.1.15,2013-08-02 03:37:00,
2013-08-01 22:43:00,76.2,66.1,29.95,SSE,153,6.0,9.0,71,0.00,,,0.00,0,Wunderground v.1.15,2013-08-02 03:43:00,
2013-08-01 22:53:00,76.2,66.1,29.96,SSE,155,7.0,7.0,71,0.00,,,0.00,0,Wunderground v.1.15,2013-08-02 03:53:00,
2013-08-01 22:59:00,76.3,66.2,29.96,SSE,154,8.0,8.0,71,0.00,,,0.00,0,Wunderground v.1.15,2013-08-02 03:59:00,
2013-08-01 23:01:00,76.3,65.8,29.96,SSE,152,7.0,8.0,70,0.00,,,0.00,0,Wunderground v.1.15,2013-08-02 04:01:00,
2013-08-01 23:03:00,76.3,65.8,29.96,SSE,154,7.0,8.0,70,0.00,,,0.00,0,Wunderground v.1.15,2013-08-02 04:03:00,
2013-08-01 23:05:00,76.3,65.8,29.96,SSE,156,8.0,9.0,70,0.00,,,0.00,0,Wunderground v.1.15,2013-08-02 04:05:00,
2013-08-01 23:11:00,76.4,65.9,29.96,SSE,157,7.0,9.0,70,0.00,,,0.00,0,Wunderground v.1.15,2013-08-02 04:11:00,
2013-08-01 23:13:00,76.4,65.9,29.96,SSE,160,7.0,7.0,70,0.00,,,0.00,0,Wunderground v.1.15,2013-08-02 04:13:00,
2013-08-01 23:17:00,76.4,65.9,29.96,SSE,155,7.0,8.0,70,0.00,,,0.00,0,Wunderground v.1.15,2013-08-02 04:17:00,
2013-08-01 23:23:00,76.3,66.2,29.96,SSE,158,6.0,6.0,71,0.00,,,0.00,0,Wunderground v.1.15,2013-08-02 04:23:00,
2013-08-01 23:29:00,76.2,66.1,29.96,SSE,154,6.0,6.0,71,0.00,,,0.00,0,Wunderground v.1.15,2013-08-02 04:29:00,
2013-08-01 23:35:00,76.2,66.1,29.97,SSE,164,6.0,10.0,71,0.00,,,0.00,0,Wunderground v.1.15,2013-08-02 04:35:00,
2013-08-01 23:43:00,76.4,66.3,29.98,SSE,148,7.0,8.0,71,0.00,,,0.00,0,Wunderground v.1.15,2013-08-02 04:43:00,
2013-08-01 23:49:00,76.5,66.4,29.98,SSE,153,7.0,8.0,71,0.00,,,0.00,0,Wunderground v.1.15,2013-08-02 04:49:00,
2013-08-01 23:55:00,76.3,66.2,29.97,SSE,156,6.0,7.0,71,0.00,,,0.00,0,Wunderground v.1.15,2013-08-02 04:55:00,